Aérodrome :
LOGIN :

S'inscrire | Disclaimer

   EN    FR    IT 

 










Légende :    VFR   VFR Marginal   IFR   IFR Intensif   IFR Très Intensif
Visi : 
Plafond : 
>= 8 km
>= 3000ft
5 à 8 km
1000 à 3000 ft
1500m à 5 km
500 à 1000 ft
800 à 1500m
200 à 500 ft
< 800m
< 200 ft
Symboles :   Orages  Brouillard  Fortes neiges  Fortes précipitations  Vent > 20 kt
SIGMETs :   Divers  Orages  Givrage  Turbulence  Onde Orograph.  Cendres Volcan.






- Altitude de l'aérodrome : 388 ft
- Code IATA : QYR


LFQB - Troyes Barberey

DERNIER METAR :
  • 161200Z AUTO 02011KT 9999 FEW030 OVC070 08/M02 Q1025

METARs EXPIRÉS :
  • 161130Z AUTO 04013KT 360V080 9999 FEW045 SCT056 OVC070 08/M02 Q1025
  • 161100Z AUTO 04011KT 360V080 9999 FEW049 OVC072 08/M03 Q1025
  • 161030Z AUTO 05012KT 020V080 9999 SCT046 BKN058 BKN100 09/M02 Q1025
  • 161000Z AUTO 05012KT 010V080 9999 FEW043 09/M02 Q1025
  • 160930Z AUTO 05011KT 9999 FEW040 09/M01 Q1025
  • 160900Z AUTO 05011KT 020V080 9999 FEW036 08/M01 Q1025

TAF N/A



MET'MAP, la Météo Aéronautique d'un coup d'oeil ! - Copyright ORBIFLY Décembre 2007 - Disclaimer

ORBIFLY MET'MAP TEAM :

Programmation & Développement : Alexandra Zaïnal
Sur une idée originale de : Baudouin d'Aumeries
Assistance à la programmation : Marc-Olivier Méhu
Soutien technique & logistique : Manuel Goepfert

Contact : metmap@orbifly.com




SOURCES & CREDITS :

   NOAA